Amateur Radio Satellites - All Passes

Search period start: 20 June 2013 01:11
Search period end: 21 June 2013 01:11
Location: Writing-on-Stone Provincial Park, 49.0825°N, 111.6163°W

Satellite Date Start Highest point End Downlink Frequencies (MHz)
Time Altitude Azimuth
SO-50 20 Jun 01:15:45 01:19:16 21° 114° (ESE) 01:22:44 436.795 FM
PCSat 20 Jun 01:41:56 01:47:15 60° 119° (ESE) 01:52:37 145.825 MHz
Saudisat 1A 20 Jun 01:45:40 01:48:43 17° 337° (NNW) 01:51:46 436.775 MHz
KITSAT 1 20 Jun 01:46:09 01:54:09 55° 43° (NE) 02:02:06 435.175 FM
Sapphire 20 Jun 02:16:27 02:21:52 83° 305° (NW) 02:27:21 437.095 MHz 1200 baud AX-25 AFSK
Oscar 19 20 Jun 02:18:20 02:22:03 20° 90° (E) 02:25:45 437.125 CW, 437.150 USB
ITAMSAT 1 20 Jun 02:44:31 02:48:57 27° 93° (E) 02:53:22 435.822 SSB
AO-27 20 Jun 02:45:46 02:50:17 29° 94° (E) 02:54:46 436.795 MHz FM
SO-50 20 Jun 02:54:44 02:59:29 68° 312° (NW) 03:04:09 436.795 FM
Oscar 16 20 Jun 03:02:47 03:07:49 53° 100° (E) 03:12:49 437.025 USB, Beacon 2401.1428
AO-Echo 20 Jun 03:14:54 03:18:50 22° 91° (E) 03:22:48 ?
Uribyol 2 20 Jun 03:17:31 03:22:39 53° 100° (E) 03:27:43 436.500 FM
PCSat 20 Jun 03:26:13 03:31:03 32° 320° (NW) 03:35:55 145.825 MHz
Saudisat 1A 20 Jun 03:28:38 03:30:16 12° 2° (N) 03:31:53 436.775 MHz
Uosat F 20 Jun 03:36:39 03:38:42 12° 86° (E) 03:40:45 435.120 FM
KITSAT 1 20 Jun 03:41:51 03:49:32 48° 246° (WSW) 03:57:12 435.175 FM
TMSAT-1 20 Jun 03:47:33 03:48:16 10° 83° (E) 03:49:00 436.925 FM
Oscar 19 20 Jun 03:56:48 04:01:53 64° 289° (WNW) 04:06:56 437.125 CW, 437.150 USB
Sapphire 20 Jun 04:01:53 04:06:08 23° 328° (NNW) 04:10:24 437.095 MHz 1200 baud AX-25 AFSK
ITAMSAT 1 20 Jun 04:23:40 04:28:42 49° 292° (WNW) 04:33:43 435.822 SSB
AO-27 20 Jun 04:25:01 04:30:01 47° 293° (WNW) 04:35:00 436.795 MHz FM
Gurwin Techsat 1B 20 Jun 04:25:18 04:30:04 32° 95° (E) 04:34:48 435.225 FM
UOSAT-12 20 Jun 04:30:54 04:35:02 36° 119° (ESE) 04:39:13 437.025 FM, 437.400 FM
SO-50 20 Jun 04:37:30 04:40:55 19° 334° (NNW) 04:44:19 436.795 FM
Oscar 16 20 Jun 04:42:43 04:46:54 26° 299° (WNW) 04:51:04 437.025 USB, Beacon 2401.1428
AO-Echo 20 Jun 04:52:57 04:58:00 61° 289° (WNW) 05:03:10 ?
Uribyol 2 20 Jun 04:57:33 05:01:52 27° 299° (WNW) 05:06:09 436.500 FM
Saudisat 1A 20 Jun 05:08:22 05:11:44 20° 26° (NNE) 05:15:02 436.775 MHz
Uosat F 20 Jun 05:13:13 05:18:19 83° 105° (ESE) 05:23:23 435.120 FM
STRAND 1 20 Jun 05:13:36 05:16:37 16° 54° (NE) 05:19:39 ?
PCSat 20 Jun 05:13:39 05:16:16 13° 345° (NNW) 05:18:53 145.825 MHz
AO-7 20 Jun 05:18:50 05:25:41 27° 91° (E) 05:32:27 29.400 - 29.500 MHz
TMSAT-1 20 Jun 05:23:54 05:29:14 69° 102° (ESE) 05:34:30 436.925 FM
Oscar 19 20 Jun 05:38:24 05:40:18 12° 309° (NW) 05:42:11 437.125 CW, 437.150 USB
MaSat-1 20 Jun 05:38:49 05:41:23 55° 243° (WSW) 05:43:50 437.345 MHz
Sapphire 20 Jun 05:49:44 05:51:42 12° 353° (N) 05:53:39 437.095 MHz 1200 baud AX-25 AFSK
Gurwin Techsat 1B 20 Jun 06:05:10 06:10:10 42° 294° (WNW) 06:15:08 435.225 FM
UOSAT-12 20 Jun 06:10:55 06:15:12 40° 319° (NW) 06:19:32 437.025 FM, 437.400 FM
SO-50 20 Jun 06:21:38 06:23:20 12° 359° (N) 06:25:02 436.795 FM
AO-Echo 20 Jun 06:34:11 06:35:52 12° 308° (NW) 06:37:33 ?
Saudisat 1A 20 Jun 06:47:39 06:52:14 71° 48° (NE) 06:56:42 436.775 MHz
STRAND 1 20 Jun 06:49:57 06:55:06 86° 74° (ENE) 07:00:17 ?
Uosat F 20 Jun 06:53:14 06:56:31 18° 304° (NW) 06:59:47 435.120 FM
PCSat 20 Jun 06:59:50 07:02:12 13° 12° (NNE) 07:04:34 145.825 MHz
TMSAT-1 20 Jun 07:04:43 07:08:42 22° 302° (WNW) 07:12:40 436.925 FM
AO-7 20 Jun 07:10:57 07:19:22 81° 292° (WNW) 07:27:42 29.400 - 29.500 MHz
Sapphire 20 Jun 07:34:28 07:37:35 15° 20° (NNE) 07:40:43 437.095 MHz 1200 baud AX-25 AFSK
JAS-1B 20 Jun 07:42:27 07:46:33 19° 91° (E) 07:50:55 435.800 - 435.900 CW/SSB
Hamsat 20 Jun 07:43:55 07:47:35 25° 93° (E) 07:51:11 145.90 MHz
UOSAT-12 20 Jun 07:53:59 07:56:35 15° 342° (NNW) 07:59:11 437.025 FM, 437.400 FM
SO-67 20 Jun 08:01:31 08:02:25 11° 88° (E) 08:03:18 435.3500 MHz FM
SO-50 20 Jun 08:02:40 08:05:49 18° 24° (NNE) 08:08:55 436.795 FM
Saudisat 1A 20 Jun 08:28:18 08:31:26 19° 248° (WSW) 08:34:31 436.775 MHz
STRAND 1 20 Jun 08:32:11 08:35:01 15° 273° (W) 08:37:51 ?
PCSat 20 Jun 08:42:51 08:47:32 28° 37° (NE) 08:52:12 145.825 MHz
AO-7 20 Jun 09:04:39 09:11:02 25° 315° (NW) 09:17:25 29.400 - 29.500 MHz
Sapphire 20 Jun 09:17:23 09:22:32 41° 44° (NE) 09:27:40 437.095 MHz 1200 baud AX-25 AFSK
Hamsat 20 Jun 09:19:41 09:23:47 39° 291° (WNW) 09:27:51 145.90 MHz
HO-68 20 Jun 09:31:36 09:36:14 18° 87° (E) 09:40:51 435.675 MHz FM
JAS-1B 20 Jun 09:32:03 09:37:50 76° 288° (WNW) 09:44:18 435.800 - 435.900 CW/SSB
SO-67 20 Jun 09:32:43 09:36:18 66° 286° (WNW) 09:39:51 435.3500 MHz FM
UOSAT-12 20 Jun 09:36:51 09:38:41 12° 7° (N) 09:40:31 437.025 FM, 437.400 FM
SO-50 20 Jun 09:42:49 09:47:22 60° 46° (NE) 09:51:49 436.795 FM
PCSat 20 Jun 10:26:03 10:31:29 72° 239° (WSW) 10:36:53 145.825 MHz
JAS-2 20 Jun 10:47:03 10:52:20 47° 98° (E) 10:57:18 435.800 - 435.900 CW/SSB, 435.910 FM
Sapphire 20 Jun 11:00:55 11:06:02 42° 245° (WSW) 11:11:06 437.095 MHz 1200 baud AX-25 AFSK
Oscar 11 20 Jun 11:03:00 11:07:14 44° 99° (E) 11:11:25 145.825 FM, Beacon 2401.500 USB
UOSAT-12 20 Jun 11:16:42 11:20:29 24° 31° (NNE) 11:24:15 437.025 FM, 437.400 FM
HO-68 20 Jun 11:17:47 11:25:02 82° 107° (ESE) 11:32:15 435.675 MHz FM
RS-15 20 Jun 11:20:31 11:30:48 36° 107° (ESE) 11:40:41 29.354 - 29.394 USB, Beacon 29.352 USB
SO-50 20 Jun 11:24:07 11:27:37 22° 246° (WSW) 11:31:04 436.795 FM
JAS-1B 20 Jun 11:24:36 11:27:44 15° 309° (NW) 11:31:01 435.800 - 435.900 CW/SSB
PCSat 20 Jun 12:11:53 12:13:57 12° 258° (WSW) 12:16:01 145.825 MHz
OPAL 20 Jun 12:28:28 12:33:27 71° 106° (ESE) 12:38:26 ?
ITAMSAT 1 20 Jun 12:31:16 12:33:05 12° 50° (NE) 12:34:53 435.822 SSB
AO-27 20 Jun 12:32:25 12:34:28 12° 51° (NE) 12:36:30 436.795 MHz FM
JAS-2 20 Jun 12:32:35 12:37:15 29° 300° (WNW) 12:41:39 435.800 - 435.900 CW/SSB, 435.910 FM
Oscar 11 20 Jun 12:39:45 12:43:14 24° 297° (WNW) 12:46:42 145.825 FM, Beacon 2401.500 USB
Oscar 16 20 Jun 12:46:37 12:50:17 20° 58° (ENE) 12:53:57 437.025 USB, Beacon 2401.1428
UOSAT-12 20 Jun 12:56:33 13:01:11 81° 232° (SW) 13:05:48 437.025 FM, 437.400 FM
Uribyol 2 20 Jun 13:02:05 13:05:53 21° 57° (ENE) 13:09:41 436.500 FM
HO-68 20 Jun 13:06:18 13:12:02 27° 308° (NW) 13:17:46 435.675 MHz FM
RS-15 20 Jun 13:30:18 13:42:16 81° 311° (NW) 13:53:41 29.354 - 29.394 USB, Beacon 29.352 USB
Oscar 19 20 Jun 13:38:58 13:43:49 43° 67° (ENE) 13:48:40 437.125 CW, 437.150 USB
ITAMSAT 1 20 Jun 14:06:27 14:11:35 61° 70° (ENE) 14:16:45 435.822 SSB
AO-27 20 Jun 14:07:52 14:13:01 64° 71° (ENE) 14:18:13 436.795 MHz FM
OPAL 20 Jun 14:08:19 14:11:53 20° 305° (NW) 14:15:27 ?
Gurwin Techsat 1B 20 Jun 14:13:56 14:16:37 14° 52° (NE) 14:19:17 435.225 FM
Oscar 16 20 Jun 14:23:58 14:29:08 73° 257° (WSW) 14:34:20 437.025 USB, Beacon 2401.1428
AO-Echo 20 Jun 14:32:06 14:36:28 38° 66° (ENE) 14:40:58 ?
AO-7 20 Jun 14:34:02 14:38:56 17° 36° (NE) 14:43:51 29.400 - 29.500 MHz
UOSAT-12 20 Jun 14:38:39 14:40:38 13° 251° (WSW) 14:42:36 437.025 FM, 437.400 FM
Uribyol 2 20 Jun 14:39:39 14:44:52 72° 257° (WSW) 14:50:08 436.500 FM
Uosat F 20 Jun 14:53:04 14:57:17 28° 62° (ENE) 15:01:30 435.120 FM
TMSAT-1 20 Jun 15:10:25 15:14:44 26° 61° (ENE) 15:19:05 436.925 FM
Oscar 19 20 Jun 15:18:48 15:23:19 30° 265° (W) 15:27:51 437.125 CW, 437.150 USB
RS-15 20 Jun 15:45:40 15:56:30 41° 340° (NNW) 16:06:55 29.354 - 29.394 USB, Beacon 29.352 USB
ITAMSAT 1 20 Jun 15:47:31 15:51:30 22° 269° (W) 15:55:32 435.822 SSB
AO-27 20 Jun 15:49:07 15:53:00 21° 269° (W) 15:56:55 436.795 MHz FM
Gurwin Techsat 1B 20 Jun 15:50:25 15:55:43 73° 72° (ENE) 16:01:02 435.225 FM
ISS 20 Jun 16:04:53 16:07:22 20° 141° (SE) 16:09:51 145.800 FM
Oscar 16 20 Jun 16:08:09 16:09:26 11° 276° (W) 16:10:43 437.025 USB, Beacon 2401.1428
AO-Echo 20 Jun 16:11:15 16:15:23 30° 266° (W) 16:19:38 ?
AO-7 20 Jun 16:21:57 16:29:56 53° 60° (ENE) 16:37:58 29.400 - 29.500 MHz
KITSAT 1 20 Jun 16:22:42 16:27:27 17° 100° (E) 16:32:12 435.175 FM
Uribyol 2 20 Jun 16:24:03 16:25:19 11° 276° (W) 16:26:34 436.500 FM
Uosat F 20 Jun 16:31:02 16:35:52 48° 261° (W) 16:40:46 435.120 FM
TMSAT-1 20 Jun 16:49:10 16:54:22 55° 260° (W) 16:59:37 436.925 FM
Gurwin Techsat 1B 20 Jun 17:32:38 17:36:16 19° 271° (W) 17:39:56 435.225 FM
ISS 20 Jun 17:40:27 17:43:44 86° 156° (SSE) 17:47:00 145.800 FM
RS-15 20 Jun 18:01:59 18:12:25 39° 14° (NNE) 18:22:29 29.354 - 29.394 USB, Beacon 29.352 USB
KITSAT 1 20 Jun 18:13:25 18:21:25 71° 121° (ESE) 18:29:30 435.175 FM
AO-7 20 Jun 18:15:02 18:22:54 45° 261° (W) 18:30:51 29.400 - 29.500 MHz
JAS-1B 20 Jun 18:32:55 18:38:07 27° 60° (ENE) 18:42:53 435.800 - 435.900 CW/SSB
Hamsat 20 Jun 18:41:52 18:45:43 31° 66° (ENE) 18:49:35 145.90 MHz
STRAND 1 20 Jun 18:57:18 19:01:15 22° 91° (E) 19:05:11 ?
ISS 20 Jun 19:17:23 19:20:36 51° 359° (N) 19:23:48 145.800 FM
HO-68 20 Jun 20:04:59 20:10:26 25° 50° (NE) 20:15:55 435.675 MHz FM
KITSAT 1 20 Jun 20:09:52 20:17:26 41° 325° (NW) 20:25:04 435.175 FM
SO-67 20 Jun 20:12:06 20:15:41 84° 76° (ENE) 20:19:17 435.3500 MHz FM
MaSat-1 20 Jun 20:12:42 20:17:48 55° 117° (ESE) 20:21:45 437.345 MHz
RS-15 20 Jun 20:15:42 20:26:57 73° 45° (NE) 20:37:50 29.354 - 29.394 USB, Beacon 29.352 USB
Hamsat 20 Jun 20:17:50 20:21:45 32° 265° (W) 20:25:44 145.90 MHz
JAS-1B 20 Jun 20:21:56 20:28:33 61° 258° (WSW) 20:34:23 435.800 - 435.900 CW/SSB
STRAND 1 20 Jun 20:35:46 20:40:52 60° 290° (WNW) 20:45:55 ?
ISS 20 Jun 20:54:12 20:57:29 85° 18° (NNE) 21:00:45 145.800 FM
JAS-2 20 Jun 21:02:18 21:08:47 40° 64° (ENE) 21:14:36 435.800 - 435.900 CW/SSB, 435.910 FM
HO-68 20 Jun 21:50:10 21:57:19 89° 252° (WSW) 22:04:33 435.675 MHz FM
MaSat-1 20 Jun 21:56:03 21:59:44 22° 311° (NW) 22:02:47 437.345 MHz
Oscar 11 20 Jun 22:02:07 22:06:25 59° 72° (ENE) 22:10:45 145.825 FM, Beacon 2401.500 USB
KITSAT 1 20 Jun 22:08:55 22:15:16 24° 353° (N) 22:21:38 435.175 FM
OPAL 20 Jun 22:09:44 22:14:07 32° 61° (ENE) 22:18:30 ?
STRAND 1 20 Jun 22:17:24 22:19:03 12° 310° (NW) 22:20:42 ?
RS-15 20 Jun 22:28:42 22:38:34 40° 251° (WSW) 22:48:17 29.354 - 29.394 USB, Beacon 29.352 USB
ISS 20 Jun 22:31:14 22:33:54 23° 217° (SW) 22:36:34 145.800 FM
Saudisat 1A 20 Jun 22:37:57 22:42:18 45° 121° (ESE) 22:46:43 436.775 MHz
JAS-2 20 Jun 22:46:48 22:53:46 49° 261° (W) 23:00:00 435.800 - 435.900 CW/SSB, 435.910 FM
Oscar 11 20 Jun 23:40:12 23:43:02 17° 270° (W) 23:45:54 145.825 FM, Beacon 2401.500 USB
HO-68 20 Jun 23:41:01 23:46:00 20° 272° (W) 23:51:01 435.675 MHz FM
OPAL 20 Jun 23:48:12 23:52:56 41° 259° (W) 23:57:39 ?
Sapphire 21 Jun 00:06:30 00:09:03 14° 103° (ESE) 00:11:36 437.095 MHz 1200 baud AX-25 AFSK
KITSAT 1 21 Jun 00:06:34 00:13:34 30° 23° (NNE) 00:20:33 435.175 FM
Saudisat 1A 21 Jun 00:17:55 00:22:08 35° 322° (NW) 00:26:24 436.775 MHz

Developed and maintained by Chris Peat, Heavens-Above GmbH. Please read the updated FAQ before sending e-mail. Imprint. DLR
